Regional Weather Roundup
Issued by NWS

Home | Current Version | Previous Version | Graphics & Text | Print | Product List | Glossary On
Versions: 1 2 3 4 5 6 7 8 9 10 11 12 13 14 15 16 17 18 19 20 21 22 23 24 25 26 27 28 29 30 31 32 33 34 35 36 37 38 39 40 41 42 43 44 45 46 47 48 49 50
072
ASUS43 KDTX 271210
RWRMI
MICHIGAN HOURLY REGIONAL WEATHER ROUNDUP
NATIONAL WEATHER SERVICE DETROIT/PONTIAC MI
800 AM EDT TUE JUN 27 2017

NOTE: "FAIR" INDICATES FEW OR NO CLOUDS BELOW 12,000 FEET WITH NO
SIGNIFICANT WEATHER AND/OR OBSTRUCTION TO VISIBILITY.

MIZ047>049-052>055-059>063-066>070-074>076-081>083-271300-
SOUTHEAST LOWER MICHIGAN

CITY           SKY/WX    TMP DP  RH WIND       PRES   REMARKS
ADRIAN         SUNNY     54  49  83 NW6       30.09R
6HR MIN TEMP:  48; 6HR MAX TEMP:  54;

ALMA           SUNNY     55  51  88 W10       30.06S
ANN ARBOR      MOSUNNY   54  49  83 W10       30.06R
BAD AXE        CLOUDY    55  49  81 NW10      30.01R
6HR MIN TEMP:  50; 6HR MAX TEMP:  55;

CARO           PTSUNNY   54  50  86 W7        30.02R
DETROIT CITY   CLOUDY    55  47  74 W8        30.04R
6HR MIN TEMP:  52; 6HR MAX TEMP:  55;

DETROIT        MOSUNNY   56  49  77 W8        30.05R
6HR MIN TEMP:  52; 6HR MAX TEMP:  56;

GROSSE ILE     SUNNY     56  49  78 W8        30.04S
6HR MIN TEMP:  51; 6HR MAX TEMP:  56;

HILLSDALE      MOSUNNY   52  46  82 NW7       30.09R
HOWELL         SUNNY     54  47  76 W8        30.07R
6HR MIN TEMP:  50; 6HR MAX TEMP:  54;


CITY           SKY/WX    TMP DP  RH WIND       PRES   REMARKS
JACKSON        SUNNY     53  48  83 W6        30.09R
6HR MIN TEMP:  48; 6HR MAX TEMP:  53;

LAMBERTVILLE   SUNNY     54  48  80 W7        30.07S
6HR MIN TEMP:  49; 6HR MAX TEMP:  55;

LANSING        SUNNY     56  48  74 W10       30.08R
6HR MIN TEMP:  50; 6HR MAX TEMP:  56; 6HR PCP: TRACE;

LAPEER         PTSUNNY   55  48  79 W8        30.03R
6HR MIN TEMP:  53; 6HR MAX TEMP:  55;

MASON          SUNNY     53  49  85 W8        30.08R
MONROE         SUNNY     55  49  81 W8        30.06R
6HR MIN TEMP:  49; 6HR MAX TEMP:  55;

MT. CLEMENS    PTSUNNY   57  48  72 W9        30.01R
6HR MIN TEMP:  52; 6HR MAX TEMP:  57;

PONTIAC        MOSUNNY   55  49  80 W14       30.03R
6HR MIN TEMP:  50; 6HR MAX TEMP:  55;

PORT HOPE        N/A     56  49  77 NW12      29.98R
6HR MIN TEMP:  54; 6HR MAX TEMP:  57;

PORT HURON     CLOUDY    54  46  76 NW8       30.01R
TRI CITIES     SUNNY     56  51  84 W14       30.05R
6HR MIN TEMP:  52; 6HR MAX TEMP:  56; 6HR PCP: TRACE;

MIDLAND        FAIR      55  49  79 W5        30.04R
6HR MIN TEMP:  51; 6HR MAX TEMP:  55;

TROY           MOSUNNY   56  47  71 W13G21    30.05S
SAGINAW HB     SUNNY     55  46  71 W13       30.03R
$$
MIZ043>046-050>051-056>058-064>065-071>073-077>080-271300-
SOUTHWEST LOWER MICHIGAN

CITY           SKY/WX    TMP DP  RH WIND       PRES   REMARKS
BATTLE CREEK   SUNNY     54  50  86 W5        30.10R
6HR MIN TEMP:  46; 6HR MAX TEMP:  54;

BENTON HARBOR  SUNNY     59  51  75 CALM      30.11R
6HR MIN TEMP:  49; 6HR MAX TEMP:  59;

BIG RAPIDS     SUNNY     55  49  82 W6        30.05S
6HR MIN TEMP:  46; 6HR MAX TEMP:  55;

COLDWATER      SUNNY     54  51  87 W6        30.11R
6HR MIN TEMP:  48; 6HR MAX TEMP:  54;

FREMONT        FAIR      51  51 100 CALM      30.06S
HOLLAND        SUNNY     59  52  77 W6        30.09S
6HR MIN TEMP:  47; 6HR MAX TEMP:  59;

GRAND RAPIDS   MOSUNNY   56  53  90 W6        30.08R
6HR MIN TEMP:  49; 6HR MAX TEMP:  56;

IONIA          FAIR      55  51  86 W6        30.07S
6HR MIN TEMP:  47; 6HR MAX TEMP:  55;

KALAMAZOO      SUNNY     54  48  80 CALM      30.11R
6HR MIN TEMP:  48; 6HR MAX TEMP:  54;

LUDINGTON      SUNNY     58  53  83 W3        30.04S
6HR MIN TEMP:  45; 6HR MAX TEMP:  58;

MARSHALL       SUNNY     53  50  89 W5        30.09S
6HR MIN TEMP:  46; 6HR MAX TEMP:  53;

MOUNT PLEASANT SUNNY     55  50  86 W8        30.04R
6HR MIN TEMP:  50; 6HR MAX TEMP:  55;

MUSKEGON       MOSUNNY   61  51  70 W9        30.07S
6HR MIN TEMP:  46; 6HR MAX TEMP:  61;

SOUTH HAVEN    MOSUNNY   58  54  86 CALM      30.10R
$$
MIZ016>042-271300-
NORTHERN LOWER MICHIGAN

CITY           SKY/WX    TMP DP  RH WIND       PRES   REMARKS
ALPENA         SUNNY     54  51  90 W6        29.99R
6HR MIN TEMP:  48; 6HR MAX TEMP:  54;

BEAVER ISLAND  SUNNY     56  55  95 W5        30.00R
6HR MIN TEMP:  42; 6HR MAX TEMP:  56;

BELLAIRE       CLOUDY    53  52  95 CALM      30.02R
6HR MIN TEMP:  46; 6HR MAX TEMP:  53;

CADILLAC       SUNNY     53  52  95 W6        30.03S
CHARLEVOIX     SUNNY     58  56  93 W7        30.02S
FRANKFORT      SUNNY     57  54  89 CALM      30.02S
GAYLORD        CLOUDY    51  49  92 W7        30.01S
6HR MIN TEMP:  48; 6HR MAX TEMP:  51;

GRAYLING       FOG       49  49  99 W6        30.03R VSB 1/4
HARBOR SPRINGS SUNNY     54  53  95 CALM      29.99S
HOUGHTON LAKE  SUNNY     54  50  86 W12       30.03S
6HR MIN TEMP:  48; 6HR MAX TEMP:  54;

MANISTEE       SUNNY     49  48  97 CALM      30.04R
OSCODA         SUNNY     55  48  77 NW12G20   29.98R
6HR MIN TEMP:  50; 6HR MAX TEMP:  55;

PELLSTON       SUNNY     55  50  83 W5        29.99S
6HR MIN TEMP:  44; 6HR MAX TEMP:  55;

ROGERS CITY    SUNNY     54  50  86 W8        29.99R
TRAVERSE CITY  MOSUNNY   56  53  90 CALM      30.01R
6HR MIN TEMP:  46; 6HR MAX TEMP:  56;

$$
MIZ007>008-015-271300-
EASTERN UPPER MICHIGAN

CITY           SKY/WX    TMP DP  RH WIND       PRES   REMARKS
KINROSS        SUNNY     47  45  93 W5        29.97R
6HR MIN TEMP:  41; 6HR MAX TEMP:  47;

MACKINAC ISLAN SUNNY     54  51  92 W8        29.98R
6HR MIN TEMP:  47; 6HR MAX TEMP:  54; 6HR PCP:  0.01;

NEWBERRY       MOSUNNY   50  49  97 W7        29.98R
6HR MIN TEMP:  42; 6HR MAX TEMP:  50;

S. S. MARIE    SUNNY     52  47  83 W3        29.96R
6HR MIN TEMP:  46; 6HR MAX TEMP:  52;

MUNISING         N/A     49  47  93 S6        29.98S
6HR MIN TEMP:  41; 6HR MAX TEMP:  49;

$$
MIZ004>006-011>014-085-271300-
CENTRAL UPPER MICHIGAN

CITY           SKY/WX    TMP DP  RH WIND       PRES   REMARKS
MANISTIQUE     CLOUDY    50  47  90 CALM      30.00R
6HR MIN TEMP:  39; 6HR MAX TEMP:  50;

ESCANABA       SUNNY     52  49  89 W6        30.01R
6HR MIN TEMP:  45; 6HR MAX TEMP:  52;

MENOMINEE      SUNNY     52  49  89 NW5       30.04R
6HR MIN TEMP:  48; 6HR MAX TEMP:  52;

SAWYER-GWINN   MOSUNNY   50  46  87 W7        30.00R
$$
MIZ001>003-009>011-084-271300-
WESTERN UPPER MICHIGAN

CITY           SKY/WX    TMP DP  RH WIND       PRES   REMARKS
IRON MOUNTAIN  SUNNY     52  47  83 NW5       30.03R
6HR MIN TEMP:  45; 6HR MAX TEMP:  52;

HOUGHTON       SUNNY     51  46  83 W9        29.99S
6HR MIN TEMP:  48; 6HR MAX TEMP:  51;

COPPER HARBOR    N/A     57  46  66 NW5       29.97S
6HR MIN TEMP:  53; 6HR MAX TEMP:  57;

IRONWOOD       SUNNY     54  48  80 W7        30.04R
6HR MIN TEMP:  46; 6HR MAX TEMP:  54; 6HR PCP: TRACE;

$$

ABBREVIATIONS USED IN REMARKS
   TC - TEMPERATURE IN CELSIUS
  WCI - WIND CHILL INDEX
   HX - HEAT INDEX
  VSB - VISIBILITY





USA.gov is the U.S. government's official web portal to all federal, state and local government web resources and services.